Location: Aufkirchen
(47.9603°N, 11.3653°E)
Time: 17:10:41
(UTC+01:00)

Courier 1B Rocket - Visible Passes

Search period start: 26 November 2020 00:00
Search period end: 06 December 2020 00:00
Orbit: 920 x 1202 km, 28.2° (Epoch: 25 November)

Date Brightness Start Highest point End Pass type
(mag) Time Alt. Az. Time Alt. Az. Time Alt. Az.
27 Nov 7.7 06:59:46 10° SSW 07:03:15 14° S 07:06:41 10° SE visible
28 Nov 7.8 05:59:59 10° S 06:02:29 12° SSE 06:04:58 10° SE visible
29 Nov 7.6 06:49:44 10° SSW 06:53:56 16° S 06:58:05 10° SE visible
30 Nov 7.6 05:49:22 10° SSW 05:53:08 14° SSE 05:56:53 10° SE visible
01 Dec 7.6 04:49:36 10° S 04:52:21 12° SSE 04:55:07 10° SE visible
01 Dec 7.5 06:40:06 10° SW 06:44:37 17° S 06:49:05 10° SE visible
02 Dec 7.5 05:39:27 10° SSW 05:43:49 16° S 05:48:09 10° SE visible
03 Dec 7.4 04:39:53 11° SSW 04:43:00 14° SSE 04:46:51 10° SE visible
03 Dec 7.4 06:30:47 10° SW 06:35:18 16° S 06:39:47 10° SSE visible
04 Dec 7.6 03:42:47 12° SSE 03:42:47 12° SSE 03:44:58 10° SE visible
04 Dec 7.4 05:29:55 10° SW 05:34:29 17° S 05:39:03 10° SE visible
05 Dec 7.2 04:32:02 15° S 04:33:40 16° S 04:38:00 10° SE visible
05 Dec 7.4 06:21:46 10° SW 06:25:58 15° S 06:30:11 10° SSE visible
